Location: The Saddle
(36.8333°N, 80.3417°W)
Time: 10:33:55
(UTC-04:00)

Vanguard 2 Rocket - Pass Details

Date: 31 January 2023
Orbit: 555 x 3316 km, 32.9° (Epoch: 25 March)

Event Time Altitude Azimuth Distance (km) Brightness Sun altitude
Rises 10:20:55 0° 224° (SW) 3,506 10.0 27.3°
Reaches altitude 10° 10:24:25 10° 208° (SSW) 2,234 9.4 27.7°
Maximum altitude 10:27:56 20° 161° (SSE) 1,447 9.8 28.1°
Drops below altitude 10° 10:30:56 10° 112° (ESE) 1,854 9.5 28.5°
Sets 10:33:29 0° 94° (E) 2,719 9.9 28.7°
